MFX089 UZTT-UZNU

Flight info

Callsign MFX089
Flight time N/A
Altitude 34000
Route N0450F340 DIBAD N193 LAPZE Y720 DIKNA
Aircraft A320/M-VGDW/C

Departure

Time 2026-05-05 15:53
Airport Tashkent International Airport (UZTT)

Arrival

Time N/A
Airport UZNU
Time Latitude Longitude Altitude Speed Heading
2026-05-05 15:25 41.26306 69.27216 1382 ft 0 kts 351°
2026-05-05 15:48 41.26327 69.27202 1382 ft 6 kts 312°
2026-05-05 15:48 41.26330 69.27137 1382 ft 6 kts 261°
2026-05-05 15:48 41.26321 69.27059 1380 ft 11 kts 261°
2026-05-05 15:49 41.26273 69.26999 1379 ft 13 kts 162°
2026-05-05 15:49 41.26199 69.27081 1379 ft 13 kts 137°
2026-05-05 15:49 41.26138 69.27125 1378 ft 9 kts 206°
2026-05-05 15:49 41.26101 69.27047 1382 ft 11 kts 244°
2026-05-05 15:50 41.26070 69.26942 1379 ft 13 kts 245°
2026-05-05 15:50 41.26029 69.26819 1382 ft 16 kts 246°
2026-05-05 15:50 41.25980 69.26673 1379 ft 19 kts 246°
2026-05-05 15:50 41.25928 69.26517 1380 ft 11 kts 246°
2026-05-05 15:51 41.25869 69.26436 1380 ft 14 kts 219°
2026-05-05 15:51 41.25795 69.26355 1380 ft 13 kts 220°
2026-05-05 15:51 41.25739 69.26256 1380 ft 14 kts 244°
2026-05-05 15:51 41.25692 69.26126 1379 ft 17 kts 245°
2026-05-05 15:52 41.25629 69.26089 1379 ft 12 kts 109°
2026-05-05 15:52 41.25637 69.26224 1380 ft 21 kts 82°
2026-05-05 15:52 41.25695 69.26746 1378 ft 92 kts 82°
2026-05-05 15:52 41.25818 69.27856 1384 ft 148 kts 82°
2026-05-05 15:53 41.25979 69.29352 1708 ft 166 kts 82°
2026-05-05 15:53 41.26144 69.30880 2360 ft 167 kts 81°
2026-05-05 15:53 41.26316 69.32433 2861 ft 177 kts 82°
2026-05-05 15:53 41.26506 69.34165 3141 ft 201 kts 83°
2026-05-05 15:54 41.26331 69.36091 3405 ft 224 kts 117°
2026-05-05 15:54 41.25226 69.37641 3754 ft 246 kts 155°
2026-05-05 15:54 41.23496 69.37983 4242 ft 264 kts 192°
2026-05-05 15:54 41.21834 69.36922 5067 ft 270 kts 217°
2026-05-05 15:55 41.20439 69.35244 6003 ft 272 kts 226°
2026-05-05 15:55 41.19164 69.33370 6933 ft 274 kts 229°
2026-05-05 15:55 41.17927 69.31479 7832 ft 276 kts 229°
2026-05-05 15:55 41.16660 69.29549 8742 ft 278 kts 233°
2026-05-05 15:56 41.15685 69.27342 9642 ft 279 kts 248°
2026-05-05 15:56 41.15159 69.24871 10483 ft 280 kts 261°
2026-05-05 15:56 41.14873 69.22217 10849 ft 302 kts 262°
2026-05-05 15:56 41.14660 69.19339 11073 ft 326 kts 272°
2026-05-05 15:57 41.14960 69.16293 11540 ft 338 kts 278°
2026-05-05 15:57 41.15317 69.13177 12243 ft 343 kts 278°
2026-05-05 15:57 41.15679 69.10025 12973 ft 348 kts 278°
2026-05-05 15:57 41.16045 69.06837 13700 ft 352 kts 278°
2026-05-05 15:58 41.16413 69.03613 14361 ft 355 kts 278°
2026-05-05 15:58 41.16783 69.00356 14993 ft 359 kts 278°
2026-05-05 15:58 41.17154 68.97068 15632 ft 362 kts 278°
2026-05-05 15:58 41.17526 68.93742 16271 ft 366 kts 278°
2026-05-05 15:59 41.17900 68.90384 16902 ft 369 kts 278°
2026-05-05 15:59 41.18274 68.87009 17528 ft 372 kts 279°
2026-05-05 15:59 41.18653 68.83593 18168 ft 375 kts 279°
2026-05-05 15:59 41.19035 68.80155 18748 ft 378 kts 279°
2026-05-05 16:00 41.19421 68.76690 19319 ft 381 kts 279°
2026-05-05 16:00 41.19804 68.73241 19890 ft 383 kts 279°
2026-05-05 16:00 41.20195 68.69726 20456 ft 386 kts 279°
2026-05-05 16:00 41.20587 68.66188 21019 ft 389 kts 279°
2026-05-05 16:01 41.20980 68.62633 21563 ft 391 kts 279°
2026-05-05 16:01 41.21373 68.59041 22083 ft 394 kts 279°
2026-05-05 16:01 41.21767 68.55422 22607 ft 397 kts 279°
2026-05-05 16:01 41.22162 68.51778 23108 ft 400 kts 279°
2026-05-05 16:02 41.22555 68.48120 23631 ft 401 kts 279°
2026-05-05 16:02 41.22950 68.44443 24049 ft 403 kts 280°
2026-05-05 16:02 41.23347 68.40748 24456 ft 405 kts 280°
2026-05-05 16:02 41.23748 68.37033 24860 ft 407 kts 280°
2026-05-05 16:03 41.24148 68.33305 25255 ft 409 kts 280°
2026-05-05 16:03 41.24549 68.29556 25640 ft 410 kts 280°
2026-05-05 16:03 41.24951 68.25795 26031 ft 412 kts 280°
2026-05-05 16:03 41.25352 68.22012 26408 ft 414 kts 280°
2026-05-05 16:04 41.25752 68.18218 26760 ft 415 kts 281°
2026-05-05 16:04 41.26150 68.14412 27159 ft 416 kts 281°
2026-05-05 16:04 41.26547 68.10598 27531 ft 417 kts 281°
2026-05-05 16:04 41.26945 68.06769 27878 ft 419 kts 281°
2026-05-05 16:05 41.27341 68.02970 28226 ft 420 kts 281°
2026-05-05 16:05 41.27742 67.99114 28570 ft 422 kts 281°
2026-05-05 16:05 41.28142 67.95241 28892 ft 424 kts 281°
2026-05-05 16:05 41.28570 67.91366 29185 ft 424 kts 282°
2026-05-05 16:06 41.29105 67.87497 29474 ft 425 kts 284°
2026-05-05 16:06 41.29718 67.83649 29764 ft 426 kts 285°
2026-05-05 16:06 41.30367 67.79792 30040 ft 427 kts 285°
2026-05-05 16:06 41.31018 67.75934 30285 ft 428 kts 285°
2026-05-05 16:07 41.31653 67.72073 30595 ft 427 kts 285°
2026-05-05 16:07 41.32267 67.68216 30901 ft 426 kts 284°
2026-05-05 16:07 41.32864 67.64361 31206 ft 425 kts 284°
2026-05-05 16:07 41.33451 67.60505 31505 ft 424 kts 284°
2026-05-05 16:08 41.34030 67.56666 31810 ft 424 kts 284°
2026-05-05 16:08 41.34613 67.52822 32110 ft 422 kts 284°
2026-05-05 16:08 41.35194 67.49002 32456 ft 420 kts 284°
2026-05-05 16:08 41.35771 67.45194 32789 ft 419 kts 284°
2026-05-05 16:09 41.36349 67.41400 33095 ft 418 kts 284°
2026-05-05 16:09 41.36928 67.37608 33401 ft 417 kts 284°
2026-05-05 16:09 41.37501 67.33833 33695 ft 417 kts 284°
2026-05-05 16:09 41.38072 67.30043 33958 ft 416 kts 284°
2026-05-05 16:10 41.38640 67.26269 34020 ft 415 kts 284°
2026-05-05 16:10 41.39769 67.18747 34014 ft 413 kts 284°
2026-05-05 16:11 41.40881 67.11311 34015 ft 412 kts 284°
2026-05-05 16:12 41.43104 66.96358 34016 ft 411 kts 284°
2026-05-05 16:13 41.45846 66.77687 34021 ft 409 kts 283°
2026-05-05 16:13 41.46933 66.70242 34022 ft 408 kts 283°
2026-05-05 16:14 41.49080 66.55378 34002 ft 407 kts 284°
2026-05-05 16:15 41.51271 66.40626 34014 ft 406 kts 284°
2026-05-05 16:16 41.53427 66.25867 34017 ft 405 kts 283°
2026-05-05 16:17 41.55026 66.14820 34008 ft 403 kts 283°
2026-05-05 16:18 41.56617 66.03794 34006 ft 403 kts 283°
2026-05-05 16:19 41.58188 65.92779 33999 ft 402 kts 282°
2026-05-05 16:19 41.59725 65.81822 34004 ft 402 kts 282°
2026-05-05 16:20 41.61782 65.67158 34003 ft 401 kts 282°
2026-05-05 16:22 41.64318 65.48855 33994 ft 400 kts 282°
2026-05-05 16:23 41.66323 65.34208 33990 ft 400 kts 282°
2026-05-05 16:23 41.67825 65.23211 33998 ft 400 kts 281°
2026-05-05 16:24 41.68803 65.15945 33998 ft 400 kts 281°
2026-05-05 16:25 41.70265 65.04975 33999 ft 399 kts 281°
2026-05-05 16:25 41.71726 64.93993 33985 ft 400 kts 281°
2026-05-05 16:26 41.73672 64.79299 33983 ft 401 kts 281°
2026-05-05 16:27 41.74632 64.71936 33994 ft 402 kts 281°
2026-05-05 16:27 41.75597 64.64568 33997 ft 401 kts 281°
2026-05-05 16:28 41.75865 64.57105 33998 ft 403 kts 270°
2026-05-05 16:28 41.75635 64.49598 33997 ft 403 kts 270°
2026-05-05 16:29 41.75406 64.42093 33989 ft 403 kts 270°
2026-05-05 16:29 41.75182 64.34636 33977 ft 403 kts 269°
2026-05-05 16:30 41.74950 64.27144 33994 ft 397 kts 269°
2026-05-05 16:30 41.74715 64.19855 33994 ft 389 kts 269°
2026-05-05 16:31 41.74481 64.12611 33991 ft 389 kts 269°
2026-05-05 16:31 41.74243 64.05384 33986 ft 389 kts 269°
2026-05-05 16:32 41.74046 63.99369 33986 ft 389 kts 269°
2026-05-05 16:32 41.73806 63.92132 33976 ft 389 kts 269°
2026-05-05 16:33 41.73556 63.84894 33982 ft 389 kts 269°
2026-05-05 16:33 41.73298 63.77669 33980 ft 388 kts 269°
2026-05-05 16:34 41.73041 63.70490 33966 ft 388 kts 269°
2026-05-05 16:34 41.72780 63.63269 33962 ft 388 kts 269°
2026-05-05 16:35 41.72509 63.56045 33954 ft 388 kts 268°
2026-05-05 16:35 41.72235 63.48819 33950 ft 388 kts 269°
2026-05-05 16:36 41.71959 63.41597 33950 ft 388 kts 268°
2026-05-05 16:36 41.71675 63.34382 33947 ft 388 kts 268°
2026-05-05 16:37 41.71389 63.27166 33950 ft 388 kts 268°
2026-05-05 16:37 41.71102 63.19996 33950 ft 389 kts 268°
2026-05-05 16:38 41.70811 63.12768 33934 ft 389 kts 268°
2026-05-05 16:38 41.70508 63.05552 33940 ft 388 kts 268°
2026-05-05 16:39 41.70201 62.98330 33958 ft 388 kts 268°
2026-05-05 16:39 41.69896 62.91124 33960 ft 388 kts 268°
2026-05-05 16:40 41.69589 62.83914 33960 ft 388 kts 268°
2026-05-05 16:40 41.69276 62.76702 33956 ft 388 kts 267°
2026-05-05 16:41 41.68954 62.69511 33964 ft 387 kts 267°
2026-05-05 16:41 41.68627 62.62330 33964 ft 386 kts 267°
2026-05-05 16:42 41.68301 62.55143 33638 ft 386 kts 267°
2026-05-05 16:42 41.68138 62.51571 33376 ft 385 kts 267°
2026-05-05 16:42 41.67974 62.48022 33021 ft 379 kts 267°
2026-05-05 16:43 41.67809 62.44524 32544 ft 375 kts 267°
2026-05-05 16:43 41.67646 62.41061 32063 ft 370 kts 267°
2026-05-05 16:43 41.67483 62.37647 31601 ft 366 kts 267°
2026-05-05 16:43 41.67322 62.34268 31140 ft 362 kts 267°
2026-05-05 16:44 41.67159 62.30918 30690 ft 359 kts 267°
2026-05-05 16:44 41.66997 62.27595 30247 ft 356 kts 267°
2026-05-05 16:44 41.66841 62.24311 29772 ft 353 kts 267°
2026-05-05 16:44 41.66691 62.21101 29333 ft 348 kts 267°
2026-05-05 16:45 41.66535 62.17888 28910 ft 344 kts 267°
2026-05-05 16:45 41.66377 62.14716 28502 ft 340 kts 266°
2026-05-05 16:45 41.66221 62.11584 28094 ft 336 kts 267°
2026-05-05 16:45 41.66068 62.08485 27706 ft 331 kts 267°
2026-05-05 16:46 41.65916 62.05429 27323 ft 327 kts 266°
2026-05-05 16:46 41.65762 62.02413 26951 ft 323 kts 266°
2026-05-05 16:46 41.65609 61.99421 26587 ft 322 kts 266°
2026-05-05 16:46 41.65457 61.96440 26223 ft 321 kts 266°
2026-05-05 16:47 41.65304 61.93470 25845 ft 320 kts 266°
2026-05-05 16:47 41.65151 61.90513 25471 ft 319 kts 266°
2026-05-05 16:47 41.64998 61.87560 25099 ft 318 kts 266°
2026-05-05 16:47 41.64845 61.84620 24710 ft 316 kts 266°
2026-05-05 16:48 41.64691 61.81691 24325 ft 315 kts 266°
2026-05-05 16:48 41.64535 61.78770 23924 ft 315 kts 266°
2026-05-05 16:48 41.64407 61.75844 23474 ft 315 kts 271°
2026-05-05 16:48 41.64611 61.72944 22984 ft 313 kts 280°
2026-05-05 16:49 41.65011 61.70086 22545 ft 312 kts 280°
2026-05-05 16:49 41.65397 61.67276 22107 ft 311 kts 279°
2026-05-05 16:49 41.65784 61.64440 21673 ft 310 kts 279°
2026-05-05 16:49 41.66168 61.61611 21246 ft 309 kts 279°
2026-05-05 16:50 41.66550 61.58789 20822 ft 308 kts 279°
2026-05-05 16:50 41.66930 61.55972 20395 ft 308 kts 279°
2026-05-05 16:50 41.67311 61.53150 19968 ft 308 kts 279°
2026-05-05 16:50 41.67691 61.50337 19537 ft 308 kts 279°
2026-05-05 16:51 41.68069 61.47518 19127 ft 308 kts 279°
2026-05-05 16:51 41.68447 61.44697 18710 ft 308 kts 279°
2026-05-05 16:51 41.68824 61.41872 18288 ft 309 kts 279°
2026-05-05 16:51 41.69203 61.39035 17822 ft 310 kts 279°
2026-05-05 16:52 41.69582 61.36202 17409 ft 309 kts 279°
2026-05-05 16:52 41.69959 61.33385 16996 ft 308 kts 279°
2026-05-05 16:52 41.70333 61.30572 16586 ft 307 kts 279°
2026-05-05 16:52 41.70704 61.27766 16184 ft 306 kts 279°
2026-05-05 16:53 41.71076 61.24958 15781 ft 306 kts 279°
2026-05-05 16:53 41.71447 61.22156 15384 ft 305 kts 279°
2026-05-05 16:53 41.71816 61.19356 14987 ft 305 kts 279°
2026-05-05 16:53 41.72182 61.16589 14612 ft 305 kts 279°
2026-05-05 16:54 41.72548 61.13806 14278 ft 303 kts 279°
2026-05-05 16:54 41.72912 61.11028 13890 ft 303 kts 279°
2026-05-05 16:54 41.73275 61.08246 13466 ft 303 kts 279°
2026-05-05 16:54 41.73638 61.05469 13052 ft 302 kts 279°
2026-05-05 16:55 41.73997 61.02703 12657 ft 301 kts 279°
2026-05-05 16:55 41.74355 60.99943 12216 ft 301 kts 279°
2026-05-05 16:55 41.74723 60.97124 11413 ft 314 kts 279°
2026-05-05 16:55 41.75102 60.94219 10923 ft 315 kts 279°
2026-05-05 16:56 41.75469 60.91401 10741 ft 299 kts 279°
2026-05-05 16:56 41.75820 60.88696 10190 ft 292 kts 278°
2026-05-05 16:56 41.76164 60.86028 9518 ft 289 kts 278°
2026-05-05 16:56 41.76503 60.83375 8786 ft 288 kts 278°
2026-05-05 16:57 41.76843 60.80713 8290 ft 290 kts 278°
2026-05-05 16:57 41.77180 60.78089 7880 ft 288 kts 279°
2026-05-05 16:57 41.77519 60.75452 7460 ft 288 kts 278°
2026-05-05 16:57 41.77859 60.72812 7026 ft 286 kts 278°
2026-05-05 16:58 41.78194 60.70202 6422 ft 282 kts 278°
2026-05-05 16:58 41.78522 60.67615 5985 ft 284 kts 278°
2026-05-05 16:58 41.78853 60.65013 5561 ft 282 kts 278°
2026-05-05 16:58 41.79183 60.62433 5155 ft 280 kts 278°
2026-05-05 16:59 41.79437 60.59858 4746 ft 277 kts 269°
2026-05-05 16:59 41.79163 60.57336 4351 ft 273 kts 250°
2026-05-05 16:59 41.78335 60.55074 3922 ft 269 kts 232°
2026-05-05 16:59 41.77164 60.53179 3500 ft 258 kts 227°
2026-05-05 17:00 41.76023 60.51402 3111 ft 247 kts 226°
2026-05-05 17:00 41.74905 60.49724 2741 ft 237 kts 219°
2026-05-05 17:00 41.73472 60.48765 2386 ft 229 kts 185°
2026-05-05 17:00 41.71966 60.49001 2296 ft 211 kts 155°
2026-05-05 17:01 41.70814 60.50055 2301 ft 194 kts 139°
2026-05-05 17:01 41.69839 60.51168 2322 ft 172 kts 139°
2026-05-05 17:01 41.68998 60.52122 2314 ft 146 kts 139°
2026-05-05 17:01 41.68243 60.52980 2310 ft 139 kts 139°
2026-05-05 17:02 41.67515 60.53809 2305 ft 136 kts 138°
2026-05-05 17:02 41.66798 60.54624 2302 ft 135 kts 138°
2026-05-05 17:02 41.66081 60.55439 2105 ft 135 kts 139°
2026-05-05 17:02 41.65378 60.56238 1925 ft 134 kts 139°
2026-05-05 17:03 41.64671 60.57041 1746 ft 133 kts 139°
2026-05-05 17:03 41.63966 60.57844 1563 ft 133 kts 137°
2026-05-05 17:03 41.63263 60.58644 1384 ft 132 kts 137°
2026-05-05 17:03 41.62563 60.59442 1213 ft 133 kts 137°
2026-05-05 17:04 41.61852 60.60259 1014 ft 136 kts 138°
2026-05-05 17:04 41.61131 60.61081 873 ft 137 kts 138°
2026-05-05 17:04 41.60411 60.61907 660 ft 136 kts 136°
2026-05-05 17:04 41.59688 60.62731 471 ft 137 kts 136°
2026-05-05 17:05 41.58970 60.63549 336 ft 130 kts 137°
2026-05-05 17:05 41.58378 60.64233 324 ft 89 kts 140°
2026-05-05 17:05 41.58034 60.64619 326 ft 42 kts 140°
2026-05-05 17:05 41.57884 60.64766 326 ft 16 kts 132°
2026-05-05 17:06 41.57887 60.64790 324 ft 1 kts 358°
2026-05-05 17:06 41.57913 60.64763 326 ft 11 kts 316°
2026-05-05 17:06 41.58000 60.64655 327 ft 23 kts 319°
2026-05-05 17:06 41.58139 60.64497 325 ft 29 kts 320°
2026-05-05 17:07 41.58277 60.64342 325 ft 23 kts 320°
2026-05-05 17:07 41.58302 60.64209 325 ft 17 kts 232°
2026-05-05 17:07 41.58248 60.64120 328 ft 14 kts 231°
2026-05-05 17:07 41.58208 60.64013 327 ft 15 kts 272°
2026-05-05 17:08 41.58281 60.63894 327 ft 19 kts 317°
2026-05-05 17:08 41.58386 60.63769 327 ft 18 kts 319°
2026-05-05 17:08 41.58455 60.63686 328 ft 10 kts 317°
2026-05-05 17:08 41.58516 60.63608 327 ft 11 kts 317°
2026-05-05 17:09 41.58520 60.63533 328 ft 8 kts 243°
2026-05-05 17:09 41.58539 60.63481 328 ft 7 kts 324°
2026-05-05 17:09 41.58551 60.63468 328 ft 0 kts 321°